TimeMST,TemperatureF,Dew PointF,Humidity,Sea Level PressureIn,VisibilityMPH,Wind Direction,Wind SpeedMPH,Gust SpeedMPH,PrecipitationIn,Events,Conditions,WindDirDegrees,DateUTC
12:52 AM,24.1,3.0,40,30.33,10.0,North,6.9,-,N/A,,Clear,360,2013-01-05 07:52:00
1:52 AM,24.1,3.0,40,30.35,10.0,North,8.1,-,N/A,,Clear,350,2013-01-05 08:52:00
2:52 AM,21.9,3.0,44,30.35,10.0,NW,6.9,-,N/A,,Clear,310,2013-01-05 09:52:00
3:52 AM,17.6,3.2,53,30.28,10.0,West,6.9,-,N/A,,Clear,280,2013-01-05 10:52:00
4:52 AM,18.0,1.9,50,30.38,10.0,Calm,Calm,-,N/A,,Clear,0,2013-01-05 11:52:00
5:52 AM,14.0,1.0,56,30.42,10.0,Calm,Calm,-,N/A,,Clear,0,2013-01-05 12:52:00
6:52 AM,16.0,1.0,52,30.43,10.0,Calm,Calm,-,N/A,,Clear,0,2013-01-05 13:52:00
7:52 AM,17.1,1.9,52,30.48,10.0,Calm,Calm,-,N/A,,Clear,0,2013-01-05 14:52:00
8:52 AM,23.0,5.0,46,30.37,10.0,North,5.8,-,N/A,,Clear,10,2013-01-05 15:52:00
9:52 AM,26.1,5.0,41,30.47,10.0,NW,5.8,-,N/A,,Clear,310,2013-01-05 16:52:00
10:52 AM,30.2,5.0,34,30.37,10.0,NNW,6.9,-,N/A,,Clear,340,2013-01-05 17:52:00
11:52 AM,32.0,3.9,31,30.41,10.0,North,6.9,-,N/A,,Clear,350,2013-01-05 18:52:00
12:52 PM,34.0,3.9,28,30.38,10.0,Variable,3.5,-,N/A,,Clear,0,2013-01-05 19:52:00
1:52 PM,35.1,3.9,27,30.35,10.0,Calm,Calm,-,N/A,,Clear,0,2013-01-05 20:52:00
2:52 PM,37.9,3.9,24,30.34,10.0,Calm,Calm,-,N/A,,Partly Cloudy,0,2013-01-05 21:52:00
3:52 PM,39.0,3.0,22,30.36,10.0,Calm,Calm,-,N/A,,Clear,0,2013-01-05 22:52:00
4:52 PM,39.0,3.0,22,30.37,10.0,Calm,Calm,-,N/A,,Clear,0,2013-01-05 23:52:00
5:52 PM,36.0,3.9,26,30.40,10.0,West,4.6,-,N/A,,Clear,280,2013-01-06 00:52:00
6:52 PM,35.1,6.1,30,30.42,10.0,North,5.8,-,N/A,,Clear,350,2013-01-06 01:52:00
7:52 PM,32.0,6.1,34,30.43,10.0,NNE,6.9,-,N/A,,Clear,30,2013-01-06 02:52:00
8:52 PM,30.0,6.1,36,30.44,10.0,North,4.6,-,N/A,,Clear,360,2013-01-06 03:52:00
9:52 PM,28.0,8.1,43,30.44,10.0,North,8.1,-,N/A,,Clear,360,2013-01-06 04:52:00
10:52 PM,26.1,8.1,47,30.45,10.0,North,8.1,-,N/A,,Clear,10,2013-01-06 05:52:00
11:52 PM,25.0,8.1,49,30.44,10.0,North,9.2,-,N/A,,Clear,360,2013-01-06 06:52:00